Location: Unspecified
(0.0000°N, 0.0000°E)
Time: 15:35:14
(UTC+00:00)

FENGYUN 1C DEB - Pass Details

Date: 15 February 2026
Orbit: 819 x 963 km, 99.2° (Epoch: 3 October)

Event Time Altitude Azimuth Distance (km) Brightness Sun altitude
Rises 03:43:14 0° 147° (SSE) 3,532 ? -36.6°
Reaches altitude 10° 03:45:59 10° 137° (SE) 2,568 ? -36.0°
Maximum altitude 03:50:52 30° 77° (ENE) 1,527 ? -34.8°
Enters shadow 03:53:18 22° 37° (NE) 1,820 ? -34.2°
